Weather History for KMSO - November, 2011

Change the Weather History Date:

Saturday, November 5, 2011

  Actual Average Record
Temperature  
Mean Temperature 30 °F 38 °F  
Max Temperature 35 °F 47 °F 67 °F (1934)
Min Temperature 25 °F 28 °F 5 °F (2003)
Degree Days  
Heating Degree Days 35 27  
Month to date heating degree days 160 133  
Since 1 July heating degree days 886 1075  
Cooling Degree Days 0 0  
Month to date cooling degree days 0 0  
Year to date cooling degree days 290 332  
Moisture  
Dew Point 28 °F    
Average Humidity 81    
Maximum Humidity 100    
Minimum Humidity 61    
Precipitation  
Precipitation 0.06 in 0.03 in 2.32 in (1927)
Month to date precipitation 0.12 0.15  
Year to date precipitation 13.52 12.23  
Snow  
Snow 0.20 in - - ()
Month to date snowfall 0.4  
Year to date snowfall 43.3  
Since 1 July snowfall 0.4  
Snow Depth 0.00 in    
Sea Level Pressure  
Sea Level Pressure 29.75 in    
Wind  
Wind Speed 3 mph (NW)    
Max Wind Speed 12 mph    
Max Gust Speed 13 mph    
Visibility 5 miles    
Events Fog , Snow    
T = Trace of Precipitation, MM = Missing Value Source: NWS Daily Summary

Daily Weather History Graph

Daily Weather History Graph

Search for Another Location

Airport or City:

Trip Planner

Search our weather history database for the weather conditions in past years. The results will help you decide how hot, cold, wet, or windy it might be!

Date:

Astronomy

Nov. 05, 2011 Rise Set
Actual Time 8:24 AM MDT 6:14 PM MDT
Civil Twilight 7:52 AM MDT 6:46 PM MDT
Nautical Twilight 7:16 AM MDT 7:22 PM MDT
Astronomical Twilight 6:40 AM MDT 7:58 PM MDT
Moon 3:48 PM MDT (11/5) 3:21 AM MDT (11/5)
Length of Visible Light 10h 54m
Length of Day
9h 50m
Waxing Gibbous, 78% of the Moon is Illuminated
Nov 5
Waxing Gibbous
Nov 10
Full
Nov 18
Last Quarter
Nov 24
New
Dec 2
First Quarter

Hourly Weather History & Observations

Time (MDT) Temp. Windchill Dew Point Humidity Pressure Visibility Wind Dir Wind Speed Gust Speed Precip Events Conditions
12:06 AM 33.8 °F - 30.2 °F 87% 29.69 in 3.0 mi Calm Calm - 0.00 in Snow Light Snow
12:09 AM 33.8 °F - 30.2 °F 87% 29.68 in 2.5 mi Calm Calm - 0.00 in Snow Light Snow
12:26 AM 33.8 °F - 30.2 °F 87% 29.69 in 1.8 mi Calm Calm - 0.01 in Snow Light Snow
12:45 AM 33.8 °F - 30.2 °F 87% 29.69 in 1.8 mi Calm Calm - 0.02 in Snow Light Snow
12:53 AM 32.0 °F - 30.9 °F 96% 29.77 in 1.8 mi Calm Calm - 0.02 in Snow Light Snow
1:03 AM 32.0 °F - 30.2 °F 93% 29.69 in 1.0 mi Calm Calm - 0.00 in   Overcast
1:17 AM 33.8 °F - 30.2 °F 87% 29.70 in 1.2 mi Calm Calm - 0.00 in Snow Light Snow
1:27 AM 33.8 °F - 30.2 °F 87% 29.70 in 1.8 mi Calm Calm - 0.00 in Snow Light Snow
1:34 AM 33.8 °F - 30.2 °F 87% 29.70 in 2.0 mi Calm Calm - 0.01 in Snow Light Snow
1:40 AM 33.8 °F - 30.2 °F 87% 29.69 in 1.8 mi Calm Calm - 0.01 in Snow Light Snow
1:53 AM 33.1 °F - 30.9 °F 92% 29.75 in 1.5 mi Calm Calm - 0.01 in Snow Light Snow
2:01 AM 33.8 °F - 30.2 °F 87% 29.69 in 1.2 mi Calm Calm - 0.01 in Snow Light Snow
2:08 AM 33.8 °F - 30.2 °F 87% 29.69 in 1.8 mi Calm Calm - 0.01 in Snow Light Snow
2:16 AM 33.8 °F 30.8 °F 30.2 °F 87% 29.68 in 2.0 mi North 3.5 mph - 0.01 in Snow Light Snow
2:29 AM 33.8 °F 30.8 °F 30.2 °F 87% 29.69 in 2.5 mi NW 3.5 mph - 0.01 in Snow Light Snow
2:37 AM 32.0 °F 28.7 °F 30.2 °F 93% 29.69 in 1.2 mi West 3.5 mph - 0.01 in Snow Light Snow
2:40 AM 32.0 °F 27.5 °F 30.2 °F 93% 29.69 in 0.8 mi West 4.6 mph - 0.01 in Snow Light Snow
2:53 AM 32.0 °F 28.7 °F 30.9 °F 96% 29.74 in 0.5 mi West 3.5 mph - 0.02 in Fog , Snow Light Snow
3:25 AM 32.0 °F 28.7 °F 30.2 °F 93% 29.69 in 1.2 mi NNW 3.5 mph - 0.00 in Snow Light Snow
3:28 AM 32.0 °F 27.5 °F 30.2 °F 93% 29.69 in 2.0 mi NNW 4.6 mph - 0.00 in Snow Light Snow
3:37 AM 32.0 °F 27.5 °F 30.2 °F 93% 29.69 in 3.0 mi NNW 4.6 mph - 0.00 in Snow Light Snow
3:53 AM 32.0 °F 25.6 °F 30.0 °F 92% 29.74 in 4.0 mi NW 6.9 mph - 0.00 in Snow Light Snow
4:10 AM 32.0 °F 27.5 °F 30.2 °F 93% 29.68 in 2.5 mi WSW 4.6 mph - 0.00 in Snow Light Snow
4:23 AM 32.0 °F 27.5 °F 30.2 °F 93% 29.68 in 4.0 mi West 4.6 mph - 0.00 in Snow Light Snow
4:53 AM 32.0 °F - 30.9 °F 96% 29.73 in 7.0 mi Calm Calm - 0.00 in   Overcast
5:41 AM 30.2 °F - 30.2 °F 100% 29.69 in 1.8 mi Calm Calm - N/A   Overcast
5:44 AM 30.2 °F - 30.2 °F 100% 29.69 in 1.0 mi Calm Calm - N/A   Overcast
5:51 AM 30.2 °F - 30.2 °F 100% 29.69 in 0.5 mi Calm Calm - N/A Fog Light Freezing Fog
5:53 AM 30.2 °F - 30.2 °F 100% 29.69 in 0.5 mi Calm Calm - N/A Fog Light Freezing Fog
6:04 AM 30.2 °F - 30.2 °F 100% 29.70 in 0.2 mi Calm Calm - N/A Fog Light Freezing Fog
6:09 AM 30.2 °F - 30.2 °F 100% 29.70 in 0.5 mi Calm Calm - N/A Fog Light Freezing Fog
6:18 AM 30.2 °F - 30.2 °F 100% 29.70 in 0.8 mi Calm Calm - N/A   Overcast
6:25 AM 30.2 °F - 28.4 °F 93% 29.70 in 1.2 mi Calm Calm - N/A   Overcast
6:28 AM 30.2 °F - 28.4 °F 93% 29.70 in 2.0 mi Calm Calm - N/A   Overcast
6:37 AM 30.2 °F 25.4 °F 28.4 °F 93% 29.70 in 9.0 mi NW 4.6 mph - N/A   Overcast
6:53 AM 30.9 °F 25.2 °F 27.0 °F 85% 29.77 in 10.0 mi NW 5.8 mph - N/A   Overcast
7:53 AM 32.0 °F - 28.0 °F 85% 29.78 in 10.0 mi Calm Calm - N/A   Overcast
8:53 AM 30.9 °F - 26.1 °F 82% 29.80 in 10.0 mi Calm Calm - N/A   Overcast
9:53 AM 32.0 °F - 25.0 °F 75% 29.81 in 10.0 mi Calm Calm - N/A   Overcast
10:53 AM 33.1 °F - 26.1 °F 75% 29.82 in 10.0 mi Calm Calm - N/A   Overcast
11:53 AM 34.0 °F - 25.0 °F 70% 29.82 in 10.0 mi Calm Calm - N/A   Overcast
12:53 PM 35.1 °F - 24.1 °F 64% 29.83 in 10.0 mi Calm Calm - N/A   Overcast
1:53 PM 33.8 °F 27.7 °F 24.8 °F 70% 29.76 in 10.0 mi NNW 6.9 mph - N/A   Overcast
2:53 PM 35.1 °F 30.1 °F 24.1 °F 64% 29.82 in 10.0 mi NNW 5.8 mph - N/A   Overcast
3:53 PM 34.0 °F 26.6 °F 23.0 °F 64% 29.83 in 10.0 mi NW 9.2 mph - N/A   Overcast
4:53 PM 34.0 °F 28.8 °F 24.1 °F 67% 29.85 in 10.0 mi North 5.8 mph - N/A   Overcast
5:53 PM 33.1 °F 28.7 °F 21.9 °F 64% 29.86 in 10.0 mi North 4.6 mph - N/A   Overcast
6:53 PM 32.0 °F 27.5 °F 21.9 °F 66% 29.88 in 10.0 mi North 4.6 mph - N/A   Overcast
7:53 PM 32.0 °F 27.5 °F 23.0 °F 69% 29.89 in 10.0 mi NW 4.6 mph - N/A   Overcast
8:53 PM 32.0 °F 27.5 °F 21.9 °F 66% 29.89 in 10.0 mi North 4.6 mph - N/A   Overcast
9:53 PM 30.9 °F - 23.0 °F 72% 29.90 in 10.0 mi Calm Calm - N/A   Overcast
10:53 PM 30.9 °F 25.2 °F 21.9 °F 69% 29.91 in 10.0 mi NNW 5.8 mph - N/A   Overcast
11:53 PM 28.9 °F - 21.9 °F 75% 29.91 in 10.0 mi Calm Calm - N/A   Overcast